Location: LDNL
(36.4545°S, 141.6685°E)
Time: 03:28:43
(UTC+11:00)

A-11 Canister half - Pass Details

Date: 18 August 2022
Orbit: 1524 x 1684 km, 47.3° (Epoch: 05 October)

Event Time Altitude Azimuth Distance (km) Brightness Sun altitude
Rises 19:08:03 0° 256° (WSW) 4,701 13.0 -13.8°
Reaches altitude 10° 19:11:21 10° 249° (WSW) 3,712 12.0 -14.5°
Maximum altitude 19:20:08 43° 179° (S) 2,051 9.6 -16.3°
Enters shadow 19:26:22 20° 118° (ESE) 3,016 10.0 -17.5°
Drops below altitude 10° 19:28:59 10° 109° (ESE) 3,733 - -18.0°
Sets 19:32:19 0° 101° (ESE) 4,730 - -18.7°
